Location: *
(40.7873°S, 98.7174°E)
Time: 09:26:43
(UTC+00:00)

NOSS 3-4 (C) - Pass Details

Date: 24 May 2022
Orbit: 847 x 1365 km, 63.4° (Epoch: 28 June)

Event Time Altitude Azimuth Distance (km) Brightness Sun altitude
Rises 10:51:37 0° 218° (SW) 3,997 6.9 -8.0°
Reaches altitude 10° 10:54:30 10° 221° (SW) 2,952 6.3 -8.5°
Maximum altitude 11:01:16 59° 298° (WNW) 1,134 4.3 -9.7°
Drops below altitude 10° 11:07:12 10° 16° (NNE) 2,600 5.8 -10.7°
Sets 11:09:36 0° 20° (NNE) 3,488 6.4 -11.2°
